STARLINK-32951, 63562

Orbit data source: Space-Track

STARLINK-32951, 63562 is a payload satellite owned by SpaceX/Seattle (US) in LEO that was launched on Sun, 13 Apr 2025 UTC via an FALCON 9 launch vehicle from the Air Force Eastern Test Range (AFETR). Payload-class satellites include a variety of spacecraft equipped with specific instruments for various scientific and technological missions. These include communications satellites like Starlink; space stations such as the ISS; scientific satellites like the Hubble; Earth observation satellites from companies like Planet Labs, Umbra, and HawkEye 360; GPS; miniature CubeSats for education and research; and military/defense satellites.

Loading next visibility...
Identifier
63562, 2025-075Q
Orbit
LEO
Country
Flag of USUS
Related business
Manufacturer
SpaceX/Seattle
Mission
Operational Commercial Communications
Bus & Motor
STARLINK V2M, Unknown motor
Mass
730 kg wet, ~700 kg dry
Launch date (UTC)
2025-04-13 (1 year ago)
Launch vehicle
FALCON 9
Launch site
Air Force Eastern Test Range (AFETR)
Object type
Payload
Rocket body
Debris
Shape & HBR
Box + 2 Pan, 17.7 m
Radar Cross Section
33.884 m², Large (>1 m²)

Expand to show TLE details & history
Last TLE update: 22 hours ago

TLE from 22 hours ago
0 STARLINK-32951
1 63562U 25075Q   26171.00435238  .00014476  00000-0  53456-3 0  9991
2 63562  43.0037  52.9132 0002441 247.8638 112.1955 15.27578631 67587
Epoch: 2026-06-20T00:06Z
TLE epoch observation values (Epoch: 2026-06-20T00:06:16.045Z)
Latitude
-0.00001°
Longitude
143.12114°
Altitude
483.462 km
Speed
7.625 km/s
True Right ascension
03h 31m 39s
True Declination
0° 00' 00"
Sunlit
Object was in daylight at epoch
Visualization orbit readout
Latitude
Unknown
Longitude
Unknown
Altitude
Unknown
Speed
Unknown
Apparent Right ascension
Unknown
Apparent Declination
Unknown
Sunlit
N/A
Visualization observer readout
Local Sidereal Time
08:41:48
Azimuth
Unknown
Elevation
Unknown
Doppler factor
Unknown
Orbital elements
Apogee altitude
486.673 km
Perigee altitude
483.322 km
Semi-major axis
6,863.135 km
Eccentricity
0.00024
Inclination
43.0037°
RAAN
52.9132°
Arg. of periapsis
247.8638°
True anomaly
112.2214°
Mean anomaly
112.1955°
Eccentric anomaly
112.20845°
Mean motion
3.81733 °/min
Orbital period
94.31 mins
BSTAR
0.00053456
Loading maneuver chart data...
Computing Atmospheric mass density...
Loading historical data...
Loading historical data...
Loading historical data...
Loading historical data...
Loading historical data...
Loading historical data...
Loading historical data...

Documentation

Showing up to 5 results
|